[[{"header":{"parameterUnit":"m.s-1","parameterCategory":1,"la1":30.2991,"la2":30.254,"lo1":-89.0895,"lo2":-89.0444,"dy":0.0017,"dx":0.0017,"nx":28,"ny":28,"refTime":"2023-09-21T21:00:00:Z","depth":0,"parameterNumber":2,"parameterNumberName":"U-component_of_WINDS"},"data":[0,0,0,0,0,0,0,0,0,0,0,0,0,0,0,0,0,0,0,0,0,0,0,0,0,0,0,0,0,0,0,0,0,0,0,0,0,0,0,0,0,0,0,0,0,0,0,0,0,0,0,0,0,0,0,0,0,0,-1.2579,-1.2579,0,-1.2608,-1.2608,-1.2608,-1.2565,-1.2564,-1.2562,-1.2561,-1.2589,-1.2591,-1.2593,0,0,0,0,0,0,0,0,0,0,0,0,0,-1.2485,-1.2487,-1.2579,-1.2579,-1.258,-1.2608,-1.2608,-1.2608,-1.2566,-1.2564,-1.2562,-1.256,-1.2588,-1.259,-1.2593,0,0,0,0,0,0,0,0,0,0,0,0,0,-1.2521,-1.2488,-1.2579,-1.2562,-1.2561,-1.2608,-1.2608,-1.2609,-1.2566,-1.2564,-1.2562,-1.256,-1.2587,-1.259,-1.2593,-1.2658,0,0,-1.2603,-1.2604,0,0,0,0,0,0,0,0,-1.2519,-1.2525,-1.2564,-1.2563,-1.2562,-1.2581,-1.2585,-1.2625,-1.2567,-1.2564,-1.2561,-1.2558,-1.2588,-1.2591,-1.2601,-1.2659,-1.266,-1.2603,-1.2605,-1.2607,-1.2608,0,0,0,0,0,0,0,-1.2517,-1.2523,-1.259,-1.2565,-1.2563,-1.2552,-1.2555,-1.2592,-1.2588,-1.2564,-1.2561,-1.2565,-1.2587,-1.2598,-1.2601,-1.2661,-1.2603,-1.2606,-1.2608,-1.2609,-1.2772,-1.2775,0,0,0,0,0,0,-1.2517,-1.2521,-1.2589,-1.2591,-1.2535,-1.2556,-1.2558,-1.2577,-1.2587,-1.2587,-1.2567,-1.2563,-1.2594,-1.2598,-1.2602,-1.2678,-1.2607,-1.261,-1.2611,-1.277,-1.2773,-1.2776,0,0,0,0,0,0,-1.2515,-1.2523,-1.2588,-1.2555,-1.2563,-1.256,-1.2581,-1.2579,-1.259,-1.259,-1.2588,-1.258,-1.2592,-1.2598,-1.2644,-1.2678,-1.2611,-1.2614,-1.2767,-1.2771,-1.2774,-1.283,0,0,0,0,0,0,-1.2512,-1.2523,-1.2548,-1.2556,-1.2565,-1.2631,-1.2583,-1.2581,-1.2596,-1.2591,-1.2601,-1.2601,-1.2591,-1.264,-1.2647,-1.2681,-1.2616,-1.2764,-1.2769,-1.2773,-1.2825,-1.2835,-1.2844,0,0,0,0,0,-1.2509,-1.2562,-1.2549,-1.2558,-1.2596,-1.2633,-1.2637,-1.2625,-1.2599,-1.2623,-1.2623,-1.26,-1.2673,-1.2645,-1.2653,-1.2689,-1.2762,-1.2768,-1.2773,-1.2821,-1.2833,-1.2844,0,0,0,0,0,0,-1.2556,-1.2563,-1.2549,-1.2606,-1.2619,-1.2625,-1.2656,-1.2639,-1.2659,-1.2654,-1.2638,-1.264,-1.269,-1.2694,-1.2662,-1.2751,-1.2713,-1.272,-1.2747,-1.2758,-1.2768,-1.2765,-1.2619,0,0,0,0,0,-1.2574,-1.2604,-1.2607,-1.2657,-1.2665,-1.266,-1.2675,-1.2665,-1.2678,-1.2683,-1.2686,-1.2699,-1.2724,-1.2742,-1.2765,-1.2826,-1.2827,-1.2854,-1.2863,-1.2871,-1.2877,-1.2909,-1.2921,-1.2794,-1.2793,-1.2793,0,0,-1.2609,-1.2616,-1.2636,-1.2667,-1.2676,-1.2707,-1.2665,-1.2699,-1.2721,-1.2688,-1.2732,-1.2735,-1.2748,-1.2802,-1.2826,-1.2806,-1.2913,-1.2878,-1.2884,-1.2886,-1.2916,-1.2928,-1.2938,-1.2797,-1.2797,-1.2796,0,0,-1.269,-1.2699,-1.2741,-1.2752,-1.2766,-1.2762,-1.2773,-1.2782,-1.2782,-1.2827,-1.2802,-1.2828,-1.2873,-1.2883,-1.2894,-1.2979,-1.2959,-1.2987,-1.3035,-1.3066,-1.3076,-1.3085,-1.3115,-1.3126,-1.2994,-1.2994,-1.2994,0,-1.2732,-1.2778,-1.2765,-1.2802,-1.2816,-1.2787,-1.283,-1.284,-1.2862,-1.2871,-1.285,-1.2906,-1.2912,-1.2968,-1.2989,-1.2999,-1.3009,-1.2986,-1.3076,-1.3085,-1.3093,-1.3121,-1.3132,-1.2997,-1.2997,-1.2996,-1.2996,0,-1.2829,-1.2862,-1.2894,-1.2916,-1.2934,-1.2973,-1.2965,-1.2985,-1.2973,-1.2971,-1.3016,-1.3024,-1.3048,-1.3061,-1.3049,-1.3115,-1.3102,-1.3079,-1.304,-1.3109,-1.3134,-1.3145,-1.3002,-1.3001,-1.3,-1.2999,0,0,-1.294,-1.2955,-1.2967,-1.2976,-1.299,-1.3015,-1.3052,-1.3077,-1.3094,-1.3109,-1.314,-1.3179,-1.3157,-1.317,-1.3159,-1.3187,-1.3253,-1.316,-1.316,-1.3176,-1.3324,-1.3341,-1.3354,-1.3239,-1.3241,-1.3243,-1.3323,0,-1.302,-1.3086,-1.3075,-1.3139,-1.3168,-1.3142,-1.3175,-1.3186,-1.3186,-1.321,-1.3209,-1.3236,-1.3206,-1.3213,-1.3239,-1.3239,-1.3282,-1.3233,-1.3267,-1.3268,-1.3264,-1.3367,-1.3386,-1.3461,-1.3333,-1.3335,-1.3336,0,-1.3122,-1.3142,-1.3209,-1.3218,-1.323,-1.326,-1.3281,-1.3305,-1.3318,-1.3315,-1.333,-1.3314,-1.3351,-1.3312,-1.3362,-1.3329,-1.3342,-1.3344,-1.3347,-1.3349,-1.3306,-1.3372,-1.3484,-1.3495,-1.3352,-1.3351,-1.3349,0,-1.3196,-1.3239,-1.3285,-1.3294,-1.3306,-1.3327,-1.3333,-1.3344,-1.3359,-1.3378,-1.3387,-1.341,-1.3422,-1.344,-1.343,-1.3403,-1.3482,-1.3442,-1.348,-1.348,-1.3497,-1.3496,-1.3613,-1.3507,-1.3507,-1.3507,-1.3506,0,-1.3286,-1.3327,-1.3318,-1.3346,-1.3391,-1.3379,-1.3424,-1.3426,-1.3436,-1.3463,-1.3442,-1.3468,-1.3454,-1.3479,-1.3472,-1.3514,-1.352,-1.3518,-1.3516,-1.352,-1.352,-1.3528,-1.3522,-1.351,-1.3509,-1.3508,-1.3508,0,-1.3375,-1.3371,-1.3418,-1.3426,-1.3429,-1.3462,-1.3468,-1.3494,-1.3492,-1.3527,-1.3534,-1.3531,-1.3559,-1.3551,-1.3582,-1.3577,-1.363,-1.3621,-1.3626,-1.3623,-1.3661,-1.3657,-1.3786,-1.3802,-1.3687,-1.3688,-1.3689,0,-1.3432,-1.3464,-1.3475,-1.3492,-1.35,-1.3528,-1.3544,-1.3532,-1.355,-1.3566,-1.359,-1.3616,-1.3636,-1.3682,-1.3682,-1.3705,-1.3696,-1.3739,-1.3699,-1.3702,-1.3695,-1.3693,-1.3696,-1.3747,-1.3749,-1.375,-1.375,0,-1.3535,-1.3531,-1.3555,-1.3578,-1.3598,-1.3615,-1.3631,-1.3646,-1.3636,-1.3656,-1.3685,-1.37,-1.3732,-1.3758,-1.3779,-1.3784,-1.3765,-1.3763,-1.3773,-1.3777,-1.3778,-1.3777,-1.3647,-1.376,-1.3759,-1.3759,-1.3758,-1.3758,-1.3609,-1.3636,-1.3648,-1.3675,-1.3686,-1.3701,-1.3725,-1.3727,-1.3751,-1.3775,-1.3767,-1.38,-1.3811,-1.3838,-1.3845,-1.387,-1.3853,-1.3868,-1.3871,-1.3875,-1.3879,-1.3775,-1.3874,-1.3874,-1.3874,-1.3873,-1.3873,0,-1.3709,-1.3716,-1.3742,-1.3764,-1.3786,-1.3767,-1.3784,-1.3802,-1.3832,-1.3844,-1.3865,-1.3897,-1.3923,-1.3924,-1.3948,-1.3967,-1.3959,-1.3974,-1.3972,-1.3973,-1.3893,-1.3882,-1.398,-1.398,-1.398,-1.398,-1.398,-1.398,-1.3764,-1.3808,-1.3806,-1.3855,-1.3861,-1.3893,-1.3904,-1.3917,-1.3927,-1.3965,-1.3986,-1.3987,-1.3995,-1.4019,-1.4041,-1.4041,-1.405,-1.4067,-1.4064,-1.3989,-1.3979,-1.3968,-1.3958,-1.407,-1.407,-1.4141,-1.4142,-1.4143]},{"header":{"parameterUnit":"m.s-1","parameterCategory":1,"la1":30.2991,"la2":30.254,"lo1":-89.0895,"lo2":-89.0444,"dy":0.0017,"dx":0.0017,"nx":28,"ny":28,"refTime":"2023-09-21T21:00:00:Z","depth":0,"parameterNumber":3,"parameterNumberName":"V-component_of_WINDS"},"data":[0,0,0,0,0,0,0,0,0,0,0,0,0,0,0,0,0,0,0,0,0,0,0,0,0,0,0,0,0,0,0,0,0,0,0,0,0,0,0,0,0,0,0,0,0,0,0,0,0,0,0,0,0,0,0,0,0,0,-3.0817,-3.0818,0,-3.0911,-3.0912,-3.0913,-3.0892,-3.089,-3.0889,-3.0887,-3.098,-3.0984,-3.0988,0,0,0,0,0,0,0,0,0,0,0,0,0,-3.0616,-3.062,-3.0817,-3.0818,-3.0819,-3.091,-3.0912,-3.0913,-3.0892,-3.089,-3.0888,-3.0886,-3.0978,-3.0983,-3.0988,0,0,0,0,0,0,0,0,0,0,0,0,0,-3.0706,-3.0621,-3.0816,-3.082,-3.0821,-3.091,-3.0912,-3.0913,-3.0893,-3.089,-3.0887,-3.0885,-3.0977,-3.0983,-3.0989,-3.108,0,0,-3.1008,-3.101,0,0,0,0,0,0,0,0,-3.0701,-3.0713,-3.0818,-3.082,-3.0821,-3.0887,-3.0875,-3.0969,-3.0893,-3.0865,-3.0887,-3.0884,-3.0951,-3.0959,-3.0982,-3.1084,-3.1088,-3.1008,-3.1012,-3.1015,-3.1016,0,0,0,0,0,0,0,-3.0695,-3.0709,-3.0854,-3.082,-3.0822,-3.0815,-3.0825,-3.0893,-3.0922,-3.0868,-3.0866,-3.0878,-3.0951,-3.0976,-3.0984,-3.1089,-3.1008,-3.1014,-3.1017,-3.102,-3.1269,-3.1272,0,0,0,0,0,0,-3.0687,-3.0704,-3.0851,-3.0857,-3.0753,-3.0821,-3.0832,-3.0868,-3.0921,-3.0926,-3.088,-3.0877,-3.0967,-3.0977,-3.0987,-3.1097,-3.1015,-3.102,-3.1024,-3.1266,-3.127,-3.1273,0,0,0,0,0,0,-3.0683,-3.0701,-3.0847,-3.078,-3.0798,-3.0828,-3.0868,-3.0872,-3.0897,-3.093,-3.0935,-3.0901,-3.0965,-3.0979,-3.1057,-3.1099,-3.1023,-3.1029,-3.1263,-3.1267,-3.1271,-3.1316,0,0,0,0,0,0,-3.0678,-3.0699,-3.0735,-3.0781,-3.0802,-3.0916,-3.0871,-3.0875,-3.0908,-3.0904,-3.0951,-3.0956,-3.0964,-3.1048,-3.1063,-3.1107,-3.1034,-3.1259,-3.1265,-3.127,-3.1311,-3.1321,-3.133,0,0,0,0,0,-3.067,-3.0743,-3.0737,-3.0755,-3.0847,-3.0919,-3.093,-3.0939,-3.0912,-3.0947,-3.0968,-3.0955,-3.1092,-3.1056,-3.1073,-3.1119,-3.1256,-3.1263,-3.1269,-3.1306,-3.1319,-3.133,0,0,0,0,0,0,-3.0701,-3.0749,-3.0743,-3.0833,-3.0872,-3.0915,-3.096,-3.0953,-3.0999,-3.0994,-3.1002,-3.1013,-3.1092,-3.1113,-3.1072,-3.1209,-3.117,-3.118,-3.1192,-3.1205,-3.1214,-3.1207,-3.1039,0,0,0,0,0,-3.0718,-3.0773,-3.0812,-3.0888,-3.0908,-3.0931,-3.0962,-3.0966,-3.1006,-3.1022,-3.1049,-3.1087,-3.1139,-3.1173,-3.1223,-3.1313,-3.1323,-3.1353,-3.1363,-3.1371,-3.138,-3.1428,-3.1442,-3.1294,-3.1294,-3.1294,0,0,-3.0754,-3.0787,-3.0821,-3.0895,-3.0925,-3.0981,-3.0945,-3.1005,-3.1046,-3.1031,-3.1106,-3.1127,-3.1171,-3.1255,-3.1294,-3.1275,-3.1423,-3.1379,-3.1385,-3.139,-3.1437,-3.1451,-3.1463,-3.1299,-3.1298,-3.1297,0,0,-3.0848,-3.0879,-3.0945,-3.0977,-3.1024,-3.1038,-3.1054,-3.1099,-3.1112,-3.1189,-3.1178,-3.1226,-3.1316,-3.1347,-3.1374,-3.148,-3.1469,-3.1496,-3.1546,-3.1594,-3.1605,-3.1616,-3.1653,-3.1666,-3.1504,-3.1504,-3.1504,0,-3.0886,-3.0971,-3.098,-3.1042,-3.1074,-3.1063,-3.113,-3.1159,-3.122,-3.1242,-3.122,-3.1332,-3.136,-3.1452,-3.1478,-3.15,-3.1518,-3.149,-3.1603,-3.1614,-3.1623,-3.1659,-3.1673,-3.1507,-3.1507,-3.1507,-3.1506,0,-3.1015,-3.1074,-3.1122,-3.1181,-3.1219,-3.1282,-3.13,-3.1337,-3.1337,-3.1353,-3.143,-3.1464,-3.152,-3.1542,-3.1543,-3.1634,-3.1621,-3.1601,-3.1562,-3.164,-3.1674,-3.1687,-3.1511,-3.151,-3.1509,-3.1509,0,0,-3.1131,-3.1195,-3.1212,-3.1239,-3.129,-3.1335,-3.1397,-3.1453,-3.1484,-3.1526,-3.1578,-3.1653,-3.1636,-3.1667,-3.1671,-3.1713,-3.1793,-3.1688,-3.1689,-3.1706,-3.1894,-3.1908,-3.1924,-3.1786,-3.1789,-3.1791,-3.189,0,-3.1229,-3.1341,-3.1351,-3.1451,-3.1504,-3.1495,-3.1549,-3.1586,-3.1603,-3.165,-3.1668,-3.1721,-3.1694,-3.1713,-3.1754,-3.1775,-3.1831,-3.1767,-3.1833,-3.1836,-3.1823,-3.1941,-3.1957,-3.2049,-3.1904,-3.1906,-3.1907,0,-3.1359,-3.1406,-3.1511,-3.1554,-3.1577,-3.1626,-3.1677,-3.1723,-3.1763,-3.1773,-3.1808,-3.1806,-3.1869,-3.1828,-3.1914,-3.1871,-3.1898,-3.1912,-3.1916,-3.1922,-3.1876,-3.195,-3.2079,-3.2093,-3.1928,-3.1926,-3.1925,0,-3.1432,-3.1521,-3.1596,-3.1619,-3.1671,-3.1705,-3.1728,-3.1766,-3.1799,-3.1844,-3.1865,-3.1916,-3.1944,-3.1983,-3.1994,-3.1963,-3.208,-3.204,-3.2088,-3.2088,-3.2113,-3.2111,-3.2248,-3.2132,-3.2131,-3.2131,-3.2131,0,-3.1541,-3.1605,-3.1629,-3.1675,-3.1747,-3.1757,-3.1827,-3.1848,-3.1882,-3.1931,-3.1925,-3.1971,-3.1983,-3.2031,-3.204,-3.211,-3.2122,-3.2131,-3.2132,-3.2131,-3.213,-3.2149,-3.2143,-3.2135,-3.2134,-3.2133,-3.2133,0,-3.1634,-3.1653,-3.1734,-3.1776,-3.1789,-3.184,-3.1876,-3.1919,-3.1935,-3.1997,-3.2012,-3.2037,-3.2092,-3.2108,-3.2174,-3.218,-3.2262,-3.2258,-3.2249,-3.2248,-3.2296,-3.2291,-3.2449,-3.247,-3.234,-3.2341,-3.2342,0,-3.1702,-3.1752,-3.18,-3.1833,-3.1858,-3.1911,-3.1944,-3.1955,-3.199,-3.204,-3.2077,-3.2132,-3.2177,-3.2266,-3.2289,-3.234,-3.2337,-3.2388,-3.2344,-3.2341,-3.2337,-3.2334,-3.2338,-3.2397,-3.2398,-3.2399,-3.24,0,-3.182,-3.1827,-3.1876,-3.1929,-3.1969,-3.201,-3.205,-3.2077,-3.2094,-3.2133,-3.219,-3.2225,-3.2293,-3.2348,-3.2399,-3.2421,-3.2413,-3.2414,-3.2428,-3.2427,-3.2419,-3.2424,-3.2271,-3.241,-3.2409,-3.2408,-3.2408,-3.2407,-3.1903,-3.1947,-3.1987,-3.2042,-3.2073,-3.211,-3.2153,-3.2175,-3.2223,-3.228,-3.2284,-3.2346,-3.2384,-3.2452,-3.2477,-3.2525,-3.2509,-3.253,-3.2535,-3.2539,-3.2543,-3.2412,-3.2534,-3.2534,-3.2534,-3.2534,-3.2533,0,-3.2021,-3.2046,-3.2097,-3.2153,-3.2195,-3.2185,-3.2229,-3.2265,-3.232,-3.2357,-3.2401,-3.2466,-3.2519,-3.2546,-3.2599,-3.2631,-3.2629,-3.2645,-3.2642,-3.2647,-3.2554,-3.2537,-3.2646,-3.2646,-3.2646,-3.2646,-3.2646,-3.2646,-3.2087,-3.216,-3.2171,-3.2259,-3.2284,-3.2346,-3.2371,-3.2405,-3.2434,-3.2508,-3.2552,-3.257,-3.2603,-3.2657,-3.2705,-3.2711,-3.2731,-3.2748,-3.2753,-3.2665,-3.2654,-3.2643,-3.2627,-3.2752,-3.2752,-3.2842,-3.2842,-3.2843]}]]